Home   Weather   Kathmandu   Past weeks

Flag for Nepal Past Weather in Kathmandu, Nepal — Yesterday and Last 2 Weeks

Now
84 °F

Passing clouds.


Feels Like: 82 °F
Forecast: 56 / 85 °F
Wind: 12 mph from Northwest

Location: Kathmandu Airport

Current Time: Apr 25, 2017 at 2:38:56 pm

Latest Report: Apr 25, 2017 at 1:35 pm


Visibility: N/A

Pressure: 29.83 "Hg (25.74 "Hg at 1305m altitude)

Humidity: 33%

Dew Point: 52 °F

Location of KathmanduLocation

Past Weather in Kathmandu — Graph

°F

Kathmandu Temperature Yesterday

Maximum temperature yesterday: 81 °F (at 3:05 pm)
Minimum temperature yesterday: 57 °F (at 1:35 am)
Average temperature yesterday: 70 °F

High & Low Weather Summary for the Past Weeks

 TemperatureHumidityPressure
High82 °F (Apr 17, 2:05 pm)100% (Apr 21, 2:35 am)30.12 "Hg (Apr 21, 2:35 am)
Low52 °F (Apr 11, 4:35 am)15% (Apr 10, 1:05 pm)29.80 "Hg (Apr 21, 4:05 pm)
Average69 °F66%29.95 "Hg
* Reported Apr 10 1:05 pm — Apr 25 1:05 pm, Kathmandu, Weather by CustomWeather, © 2017

Note: Actual official high and low records may vary slightly from our data, if they occured in-between our weather recording intervals... More about our weather records

Advertising

Kathmandu Weather History for the Previous 24 Hours

Scroll right to see more
 ConditionsComfort  
Time TempWeatherWind HumidityBarometerVisibility
1:05 pm
Tue, Apr 25
82 °FPassing clouds.12 mph37%29.86 "HgN/A
12:35 pm82 °FPassing clouds.12 mph35%29.86 "Hg5 mi
12:05 pm82 °FPassing clouds.10 mph37%29.89 "Hg5 mi
11:35 am82 °FPassing clouds.6 mph37%29.89 "Hg5 mi
11:05 am81 °FPassing clouds.5 mph39%29.89 "Hg5 mi
10:35 am81 °FPassing clouds.3 mph42%29.89 "Hg4 mi
9:35 am75 °FPassing clouds.3 mph61%29.89 "Hg4 mi
9:05 am73 °FHaze.5 mph69%29.89 "Hg3 mi
8:05 am70 °FFog.No wind73%29.89 "Hg2 mi
7:35 am66 °FFog.2 mph83%29.89 "Hg2 mi
7:05 am64 °FFog.2 mph88%29.89 "Hg2 mi
6:35 am63 °FFog.3 mph88%29.89 "Hg1 mi
6:05 am61 °FFog.5 mph94%29.86 "Hg2 mi
5:35 am61 °FFog.3 mph94%29.86 "Hg2 mi
4:35 am61 °FPassing clouds.3 mph94%29.86 "Hg4 mi
3:35 am63 °FPassing clouds.3 mph88%29.83 "Hg4 mi
2:35 am63 °FPassing clouds.3 mph94%29.86 "Hg4 mi
1:35 am64 °FPassing clouds.5 mph88%29.86 "Hg4 mi
12:35 am64 °FPassing clouds.3 mph88%29.89 "Hg4 mi
12:05 am66 °FPassing clouds.3 mph83%29.89 "Hg4 mi
11:35 pm
Mon, Apr 24
66 °FPassing clouds.3 mph83%29.89 "Hg4 mi
11:05 pm68 °FPassing clouds.3 mph83%29.89 "Hg4 mi
10:35 pm68 °FPassing clouds.3 mph83%29.92 "Hg4 mi
10:05 pm68 °FPassing clouds.3 mph83%29.89 "Hg4 mi
9:35 pm70 °FPassing clouds.3 mph78%29.89 "Hg5 mi
9:05 pm72 °FPassing clouds.3 mph69%29.89 "Hg5 mi
8:35 pm72 °FPassing clouds.5 mph73%29.89 "Hg5 mi
8:05 pm72 °FPassing clouds.6 mph69%29.86 "Hg5 mi
7:35 pm73 °FPassing clouds.6 mph65%29.86 "Hg5 mi
7:05 pm73 °FPassing clouds.6 mph61%29.83 "Hg5 mi
6:35 pm75 °FPassing clouds.7 mph57%29.83 "HgN/A
6:05 pm75 °FPassing clouds.8 mph57%29.83 "HgN/A
5:35 pm77 °FPassing clouds.9 mph54%29.80 "HgN/A
5:05 pm79 °FPassing clouds.8 mph51%29.80 "HgN/A
4:35 pm79 °FPassing clouds.8 mph48%29.80 "HgN/A
4:05 pm79 °FScattered clouds.7 mph51%29.80 "HgN/A
3:35 pm81 °FScattered clouds.8 mph48%29.80 "HgN/A
3:05 pm81 °FPassing clouds.8 mph48%29.83 "HgN/A
2:35 pm79 °FPassing clouds.9 mph51%29.83 "HgN/A
2:05 pm79 °FPartly sunny.8 mph51%29.86 "Hg5 mi
Weather by CustomWeather, © 2017

See weather overviewHow to use our weather pages